Regional Weather Roundup
Issued by NWS

Home | Current Version | Previous Version | Graphics & Text | Print | Product List | Glossary On
Versions: 1 2 3 4 5 6 7 8 9 10 11 12 13 14 15 16 17 18 19 20 21 22 23 24 25 26 27 28 29 30 31 32 33 34 35 36 37 38 39 40 41 42 43 44 45 46 47 48 49 50
000
ASUS43 KIND 200100
RWRIN

WEATHER ROUNDUP FOR INDIANA
NATIONAL WEATHER SERVICE INDIANAPOLIS IN
900 PM EDT TUE SEP 19 2017

NOTE: "FAIR" INDICATES FEW OR NO CLOUDS BELOW 12,000 FEET WITH NO
SIGNIFICANT WEATHER AND/OR OBSTRUCTIONS TO VISIBILITY.

* - STATION DOES NOT REPORT WEATHER SUCH AS PRECIPITATION OR FOG.

+ - STATION NOT QUALITY CONTROLLED BY THE NATIONAL WEATHER SERVICE.
    USE DATA WITH CAUTION...ESPECIALLY DEWPOINT AND RELATIVE
    HUMIDITY OBSERVATIONS.

INZ001>003-010>013-019-020-200200-
NORTHWEST INDIANA

CITY           SKY/WX    TMP DP  RH WIND       PRES   REMARKS
MICHIGAN CITY+ CLEAR     63  63 100 CALM      29.94R
RENSSELAER +   CLEAR     68  61  77 NE3       29.92R

$$

LMZ046-743>745-200200-
SOUTHERN LAKE MICHIGAN

STATION/POSITION TIME  TEMP    WIND        PRES    WAVE
                       AIR SEA DIR/SP/G            HT
                 (UTC) (F)     (DEG/KT/KT) (MB)    (FT)
BURNS HARBOR     0040   68      70/  6/  8 1013.9R
MICHIGAN CITY    0030   67      50/  6/  6   N/A
5NW MICH CITY    0050   68 69   70/  6/  6   N/A     1

$$

INZ004-005-014>016-021>024-200200-
NORTH CENTRAL INDIANA

CITY           SKY/WX    TMP DP  RH WIND       PRES   REMARKS
ELKHART        PTCLDY    68  64  88 CALM      29.93R
GOSHEN         CLOUDY    68  64  87 N3        29.93R
SOUTH BEND     CLEAR     67  66  97 CALM      29.93R

$$

INZ006>009-017-018-025>027-200200-
NORTHEAST INDIANA

CITY           SKY/WX    TMP DP  RH WIND       PRES   REMARKS
FORT WAYNE     MOCLDY    69  67  93 SE5       29.93R
KENDALLVILLE + CLOUDY    67  67 100 E6        29.93F

$$

INZ028-029-035-036-043>045-051>053-200200-
WEST CENTRAL INDIANA

CITY           SKY/WX    TMP DP  RH WIND       PRES   REMARKS
LAFAYETTE      CLEAR     67  67 100 CALM      29.91R
TERRE HAUTE    PTCLDY    71  66  84 CALM      29.91R

$$

INZ030>032-037>040-046>048-054>057-064-065-200200-
CENTRAL INDIANA

CITY           SKY/WX    TMP DP  RH WIND       PRES   REMARKS
COLUMBUS       CLEAR     72  64  78 S7        29.94R
INDIANAPOLIS   PTCLDY    74  66  76 CALM      29.92R
-EAGLE CREEK   CLEAR     72  66  81 MISG      29.92R
KOKOMO +       CLEAR     67  65  93 CALM      29.94R
MT COMFORT *+    N/A    N/A N/A N/A MISG        N/A
SHELBYVILLE    MOCLDY    73  66  78 S8        29.93R

$$

INZ033-034-041-042-049-050-058-059-200200-
EAST CENTRAL INDIANA

CITY           SKY/WX    TMP DP  RH WIND       PRES   REMARKS
MUNCIE         PTCLDY    70  65  84 E3        29.94R
RICHMOND +     PTCLDY    66  64  94 S3        29.96S

$$

INZ060-061-067>069-081>083-085>088-200200-
SOUTHWEST INDIANA

CITY           SKY/WX    TMP DP  RH WIND       PRES   REMARKS
EVANSVILLE     CLEAR     74  68  81 CALM      29.92R
HUNTINGBURG +    N/A    N/A N/A N/A MISG        N/A

$$

INZ062-063-066-070>080-084-089>092-200200-
SOUTH CENTRAL AND SOUTHEAST INDIANA

CITY           SKY/WX    TMP DP  RH WIND       PRES   REMARKS
BLOOMINGTON    CLEAR     72  66  81 S6        29.93R
MADISON *+     CLEAR     66  63  88 CALM      29.97R
SEYMOUR +      CLEAR     70  66  88 SE5       29.94R

$$





USA.gov is the U.S. government's official web portal to all federal, state and local government web resources and services.